www.pogodaiklimat.ru
ПОГОДА в Фхлю Агромете
Время
(UTC), дата
03 29.07
06 29.07
09 29.07
12 29.07
15 29.07
18 29.07
21 29.07
00 30.07
03 30.07
06 30.07
09 30.07
12 30.07
15 30.07
18 30.07
21 30.07
00 31.07
03 31.07
06 31.07
09 31.07
12 31.07
15 31.07
18 31.07
21 31.07
00 1.08
03 1.08
06 1.08
09 1.08
12 1.08
15 1.08
18 1.08
21 1.08
00 2.08
03 2.08
06 2.08
09 2.08
12 2.08
15 2.08
18 2.08
21 2.08
00 3.08
03 3.08
06 3.08
09 3.08
12 3.08
15 3.08
18 3.08
21 3.08
00 4.08
03 4.08
06 4.08
09 4.08
12 4.08
15 4.08
18 4.08
21 4.08
00 5.08
Ветер
(напр.,м/с)
Видим. Явления Облачность Т
(С)
Тd
(С)
f
(%)
Тe
(С)
Тes
(С)
Комфортность P
(гПа)
Po
(гПа)
Тmin
(С)
Tmax
(С)
R
(мм)
R24
(мм)
S
(см)
штиль 0 8000 м дымка 8/4 600 м
[Cu med, cong Ac lent Cs]
+29.5 +25.2 78 +43 +52 опасность
перегрева
1009.2 1006.5
штиль 0 8000 м дымка 6/4 600 м
[Cu med, cong Cs]
+30.5 +25.9 76 +45 +61 опасность
перегрева
1007.9 1005.2 5.9
штиль 0 8000 м дымка 10/5 600 м
[Cu Sc Ac As Cs]
+29.0 +26.2 85 +44 +46 опасность
перегрева
1007.3 1004.5
штиль 0 8000 м слаб. дождь 10/5 600 м
[Cu Sc Ac As Cs]
+25.0 +24.7 98 +35 +35 очень
душно
1008.0 1005.2 +31.4 3 8.4
штиль 0 8000 м дымка 8/4 600 м
[Cu med, cong Ac lent Cs]
+26.2 +25.6 97 +39 +39 очень
душно
1010.1 1007.3
штиль 0 8000 м дымка {гроза, дождь} 10/5 600 м
[Cu Sc Ac lent Cs]
+25.0 +24.6 98 +35 +35 очень
душно
1009.4 1006.6 3 11.8
штиль 0 8000 м дымка 8/4 600 м
[Cu med, cong Ac lent Cs]
+25.2 +24.6 96 +35 +35 очень
душно
1008.2 1005.5
штиль 0 8000 м дымка 8/4 600 м
[Cu med, cong Ac lent Cs]
+25.0 +24.4 96 +35 +36 очень
душно
1009.1 1006.3 +23.8 5.9
ЮЗ 1 8000 м дымка 6/4 600 м
[Cu med, cong Cs]
+30.4 +25.9 77 +45 +56 опасность
перегрева
1009.8 1007.1
штиль 0 8000 м мгла 5/4 600 м
[Cu med, cong Ci fib]
+32.5 +24.7 64 +46 +62 опасность
перегрева
1007.3 1004.5 5.9
штиль 0 8000 м мгла 5/4 600 м
[Cu med, cong Ci fib]
+32.0 +24.5 65 +45 +51 опасность
перегрева
1005.5 1002.8
штиль 0 8000 м дымка 5/4 600 м
[Cu med, cong Ci fib]
+29.7 +25.5 78 +44 +44 опасность
перегрева
1006.6 1003.8 +32.8 3.4
штиль 0 8000 м дымка 5/4 600 м
[Cu med, cong Ci fib]
+27.0 +24.9 88 +39 +39 очень
душно
1008.2 1005.5
штиль 0 8000 м гроза без осадков 10/5 600 м
[Cb cap Ac As Cs]
+26.2 +24.8 92 +37 +37 очень
душно
1006.9 1004.1
штиль 0 8000 м в посл. час гроза 8/5 600 м
[Cu Sc Cs]
+25.4 +24.8 96 +36 +36 очень
душно
1005.6 1002.8 14
штиль 0 8000 м дымка {гроза, дождь} 10/3 600 м
[Cu med, cong As op Cs]
+26.0 +24.8 93 +37 +38 очень
душно
1006.6 1003.8 +25.0 0.4 14.2
З 4 8000 м дымка 6/3 600 м
[Cu Sc Cs]
+30.0 +27.2 85 +48 +55 опасность
перегрева
1006.8 1004.1
штиль 0 8000 м мгла 5/4 600 м
[Cu med, cong Ci fib]
+32.5 +24.7 64 +46 +62 опасность
перегрева
1007.3 1004.5 14.2
штиль 0 8000 м мгла 5/4 600 м
[Cu med, cong Ci fib]
+32.0 +24.5 65 +45 +50 опасность
перегрева
1005.5 1002.8
штиль 0 8000 м дымка 5/4 600 м
[Cu med, cong Ci fib]
+29.7 +25.5 78 +44 +44 опасность
перегрева
1006.6 1003.8 +32.8 14.2
штиль 0 8000 м дымка 5/4 600 м
[Cu med, cong Ci fib]
+27.0 +24.8 88 +39 +39 очень
душно
1008.2 1005.5
штиль 0 8000 м дымка 5/4 600 м
[Cu med, cong Ci fib]
+26.5 +25.4 94 +39 +39 очень
душно
1008.2 1005.5 14.2
СЗ 2 8000 м дымка 9/8 600 м
[Cu Sc As op Cs]
+28.9 +25.1 80 +42 +42 опасность
перегрева
1003.8 1001.0
штиль 0 8000 м дымка 10/5 600 м
[Cu Sc Ac lent Cs]
+28.5 +25.7 85 +42 +43 опасность
перегрева
1004.0 1001.3 +27.2
З 5 8000 м дымка 10/5 600 м
[Cu Sc Ac lent Cs]
+30.5 +25.1 73 +44 +46 опасность
перегрева
1004.8 1002.0
ЮЗ 6 8000 м дымка 10/5 600 м
[Cu Sc Ac lent Cs]
+30.0 +25.0 75 +43 +45 опасность
перегрева
1003.9 1001.1
штиль 0 8000 м дымка 10/5 600 м
[Cu Sc Ac lent Cs]
+30.0 +24.6 73 +43 +45 опасность
перегрева
1002.8 1000.0
штиль 0 8000 м дымка 10/4 600 м
[Cu Sc Ac lent Cs]
+28.5 +26.0 86 +43 +43 опасность
перегрева
1003.4 1000.6 +31.2
ЮЗ 7 8000 м дымка {дождь} 10/5 600 м
[Cu Sc Ac lent Cs]
+29.0 +25.0 79 +42 +42 опасность
перегрева
1005.3 1002.6 0.6
штиль 0 8000 м дымка {дождь} 10/5 600 м
[Cu Sc Ac lent Cs]
+28.7 +24.8 79 +41 +41 опасность
перегрева
1004.8 1002.0 0.6 0.6
ЮЗ 2 8000 м дымка 8/5 600 м
[Cu hum Ac lent Ci fib]
+28.5 +24.2 78 +40 +40 очень
душно
1003.2 1000.4
штиль 0 8000 м дымка {дождь} 10/5 600 м
[Cu Sc Ac lent Cs]
+27.8 +26.0 90 +42 +42 опасность
перегрева
1003.8 1001.1 +26.7 0.4 1.0
штиль 0 8000 м слаб. дождь 10/5 600 м
[Cu Sc Ac As Cs]
+28.0 +26.6 92 +43 +49 опасность
перегрева
1005.6 1002.9 3
ЮЗ 7 8000 м слаб. дождь 10/5 600 м
[Cu Sc Ac As Cs]
+28.2 +27.2 94 +45 +46 опасность
перегрева
1003.9 1001.1 0.5 4.2
З 12 8000 м дымка {дождь} 10/5 600 м
[Cu Sc Ac As Cs]
+29.5 +24.2 73 +41 +41 опасность
перегрева
1002.0 999.3 0.2
З 5 8000 м слаб. дождь 10/5 600 м
[Cu Sc Ac As Cs]
+27.7 +25.3 87 +40 +40 очень
душно
1002.4 999.6 +30.0 0.5 4.9
штиль 0 8000 м дымка {дождь} 8/5 600 м
[Cu Sc Ac lent Cs]
+28.5 +25.5 84 +42 +42 опасность
перегрева
1004.3 1001.5 2
штиль 0 8000 м слаб. дождь 10/5 600 м
[Cu Sc Ac As Cs]
+25.9 +24.6 93 +37 +37 очень
душно
1003.9 1001.1 13 19.0
штиль 0 7000 м слаб. дождь 10/8 600 м
[Cu Sc Ac lent Cs]
+26.6 +24.7 89 +38 +38 очень
душно
1002.7 1000.0 4
штиль 0 8000 м дымка {дождь} 10/5 600 м
[Cu Sc Ac lent Cs]
+26.5 +25.1 92 +38 +39 очень
душно
1003.7 1000.9 +25.2 0.5 22.6
ЮЗ 7 8000 м дымка 10/5 600 м
[Cu Sc Ac lent Cs]
+30.3 +25.6 76 +45 +46 опасность
перегрева
1004.1 1001.3
штиль 0 8000 м слаб. дождь 10/5 600 м
[Cu Sc Ac As Cs]
+30.5 +25.1 73 +44 +51 опасность
перегрева
1004.7 1002.0 2 21.0
штиль 0 8000 м гроза, ливневой дождь 10/5 600 м
[Cb cap Ac As Cs]
+26.2 +25.5 96 +38 +41 очень
душно
1002.9 1000.1 9
штиль 0 8000 м слаб. дождь {гроза} 10/5 600 м
[Cu Sc Ac As Cs]
+26.4 +25.8 97 +39 +39 очень
душно
1004.5 1001.7 +31.0 2 30.3
штиль 0 8000 м дымка {дождь} 10/5 600 м
[Cu Sc Ac As Cs]
+26.2 +25.8 98 +39 +39 очень
душно
1005.9 1003.1 2
штиль 0 8000 м слаб. дождь 10/5 600 м
[Cu Sc Ac As Cs]
+25.2 +24.8 98 +36 +36 очень
душно
1005.3 1002.5 7 24.2
штиль 0 8000 м дымка {дождь} 10/8 600 м
[Cu Sc Ac lent Cs]
+24.8 +24.4 98 +35 +35 очень
душно
1004.4 1001.6 47
штиль 0 8000 м слаб. дождь 10/8 600 м
[Cu Sc Ac lent Cs]
+24.8 +24.4 98 +35 +35 очень
душно
1005.4 1002.6 +24.3 3 70.6
штиль 0 7000 м слаб. дождь 10/8 600 м
[Cu Sc As op Cs]
+25.7 +24.7 94 +36 +38 очень
душно
1007.1 1004.3 5
штиль 0 8000 м дымка {дождь} 10/5 600 м
[Cu Sc Ac As Cs]
+29.4 +25.3 79 +43 +50 опасность
перегрева
1005.7 1003.0 0.2 73.8
штиль 0 8000 м дымка 10/5 600 м
[Cu Sc Ac As Cs]
+29.0 +25.0 79 +42 +44 опасность
перегрева
1004.4 1001.6
штиль 0 8000 м дымка 10/5 600 м
[Cu Sc Ac lent Cs]
+28.0 +25.9 88 +42 +42 опасность
перегрева
1004.5 1001.7 +30.0 63.8
штиль 0 8000 м дымка {дождь} 8/5 600 м
[Cu Sc Ac lent Cs]
+26.8 +25.7 94 +40 +40 очень
душно
1007.4 1004.6 3
штиль 0 8000 м дымка {дождь} 8/5 600 м
[Cu Sc Ac lent Cs]
+26.2 +25.5 96 +38 +38 очень
душно
1006.1 1003.3 8 58.0
штиль 0 7000 м слаб. дождь 10/8 600 м
[Cu Sc Ac lent Cs]
+26.5 +26.2 98 +40 +40 очень
душно
1005.0 1002.2 2
штиль 0 8000 м слаб. дождь 10/5 600 м
[Cu Sc Ac As Cs]
+25.5 +25.1 98 +37 +37 очень
душно
1006.8 1004.1 +24.0 4 13.6
Местоположение метеостанции Фхлю Агромет (Таиланд): широта 12.50 долгота 102.17 высота над уровнем моря 24 м.
В архиве по умолчанию представлена погода в Фхлю Агромете за последнюю неделю. Архивные данные за месяц целиком и за предыдущие месяцы, начиная с января 2011 года, Вы можете получить, выбрав интересующий диапазон дат из раскрывающегося списка и нажав кнопку "Найти!".
*Определитесь, кто Вы:
Внимание! Время в таблицах - всемирное. Для получения местного времени необходимо прибавить поправку, которая равна 7 ч.
Смотрите также архив погоды в соседних городах и на ближайших метеорологических станциях:
Партнеры нашего сайта:      
Пояснения к столбцам:
  • Ветер - указаны скорость ветра в м/с - средняя за 10 мин, порывы в срок и между сроками (в фигурных скобках) и направление, откуда дует ветер: С - северный,
  • СВ - северо-восточный, В - восточный, ЮВ - юго-восточный, Ю - южный, ЮЗ - юго-западный, З - западный, СЗ - северо-западный.
  • Видимость - горизонтальная дальность видимости в метрах или километрах. При видимости от 1 до 10 км при отсутствии осадков обычно наблюдается дымка, при ухудшении видимости до 1 км и менее - туман. В сухую погоду видимость может ухудшаться дымом, пылью или мглою.
  • Явления - указаны атмосферные явления, наблюдавшиеся в срок или в последний час перед сроком; фигурными скобками обозначены явления, наблюдавшиеся между сроками (за 1-3 часа до срока); квадратными скобками обозначены град или гололедные отложения с указанием их диаметра в мм.
  • Облачность - указаны через наклонную черту общая и нижняя облачность в баллах и высота нижней границы облаков в метрах; квадратными скобками обозначены формы облаков: Ci - перистые, Cs - перисто-слоистые, Cc - перисто-кучевые, Ac - высококучевые, As - высокослоистые, Sc - слоисто-кучевые, Ns - слоисто-дождевые, Cu - кучевые, Cb - кучево-дождевые. Подробнее классификацию облаков см. в Атласе облаков (PDF).
  • T - Температура воздуха - температура, измеренная на высоте 2 м над землей.
  • Td - Температура точки росы - температура, при понижении до которой содержащийся в воздухе водяной пар достигнет насыщения.
  • f - Относительная влажность воздуха - влажноcть воздуха, измеренная на высоте 2 м над землей.
  • Te - Эффективная температура - температура, которую ощущает одетый по сезону человек в тени. Характеристика душности погоды. При расчете учитывается влияние влажности воздуха и скорости ветра на теплоощущения человека.
  • Tes - Эффективная температура на солнце - температура, которую ощущает человек, с поправкой на солнечный нагрев. Характеристика знойности погоды. Зависит от высоты солнца над горизонтом, облачности и скорости ветра. Ночью, в пасмурную погоду, а также при ветре 12 м/с и более поправка равна нулю.
  • P - Атмосферное давление - приведенное к уровню моря атмосферное давление.
  • Po - Атмосферное давление - измеренное на уровне метеостанции атмосферное давление.
  • Tmin - Минимальная температура - минимум температуры воздуха на высоте 2 м над землей.
  • Tmax - Максимальная температура - максимум температуры воздуха на высоте 2 м над землей.
  • R - Количество осадков - Количество выпавших осадков за период времени, мм. При наведении курсора мыши на число - период времени, за который выпало указанное количество осадков.
  • R24 - Количество осадков - Количество выпавших осадков за 24 часа, мм.
  • S - Снежный покров - Высота снежного покрова, см. При наведении курсора мыши на число - состояние снежного покрова и степень покрытия местности в баллах.